Weather in Bir, Billing Road

India     32°03′35″N   76°44′42″E
temp.,
°C
wind,
m/s
gust,
m/s
humid.,
%
clouds,
%
prec.,
mm/h
press.,
hPa
HPBL,
m
11 may, tue
tue1123:30+17ne435069 0.1 101039
02:30+15nne3259100 0.4 101024
05:30+15ne336096 1.2 101029
08:30+20ssw114971 0.5 1011406
11:30+24sw324017 1.6 10091815
14:30+22wnw464992 2.9 10081590
17:30+19ne3457100 6.8 1007252
20:30+16ne4462100 0.6 100745
12 may, wed
wed1223:30+16ne435472 0.6 100741
02:30+14ne546899 1.8 100746
05:30+14ne436322 2.1 100830
08:30+19wsw3250100 0.5 1008362
11:30+20se2349100 1.4 1008581
14:30+21s2347100 0.6 10071390
17:30+22sw3443100 0.9 10041745
20:30+15ne3267100 2.8 100635
13 may, thu
thu1323:30+16nne2259100 2.9 100522
02:30+15ne3261100 0.3 100526
05:30+14ne326997 2.0 100727
08:30+17ene1162100 2.8 1009211
11:30+22w1142100 3.6 10081538
14:30+20sw445392 2.0 1006720
17:30+20e025221 6.4 1006709
20:30+14ne43590 0.0 100841
14 may, fri
fri1423:30+14ne43480 0.0 100842
02:30+14ne43451 0.0 100737
05:30+14ne42460 0.0 100831
08:30+21ssw21330 0.0 1008696
11:30+24sw32301 0.1 10071761
14:30+25wsw342842 0.5 10062857
17:30+24wsw223112 1.2 10041760
20:30+17ne534947 0.1 100843
15 may, sat
sat1523:30+15ne4356100 0.7 100942
02:30+16ne434995 0.0 100840
05:30+15ne5447100 0.1 100942
08:30+23s22282 0.0 10081074
11:30+26sw332497 0.0 10072509
14:30+27w432660 0.3 10063324
17:30+25nw123183 0.6 10051205
20:30+19ne424235 0.1 100931